This demonstration page uses our WeatherBlox Daily Observations layout. Learn more.

Left ArrowRight Arrow

Hourly Observations for June 26, 2020

Temp ( °F °C ) Dew Point ( °F °C ) Humidity (%) Winds ( mph kmh ) Pressure ( in mb ) Visibility ( mi km ) Precip ( " mm )
12:53 am 00:53 Clear 58 14.4 51 10.6 78 78 WSW 5 7 29.93 1014 10 16 N/A
1:53 am 01:53 Clear 55 12.8 50 10 83 83 N N/A 29.93 1013 10 16 N/A
2:53 am 02:53 Clear 54 12.2 49 9.4 83 83 SW 5 7 29.92 1013 10 16 N/A
3:53 am 03:53 Clear 54 12.2 48 8.9 80 80 SW 3 6 29.91 1013 10 16 N/A
4:53 am 04:53 Clear 51 10.6 48 8.9 89 89 ESE 5 7 29.90 1012 10 16 N/A
5:53 am 05:53 Sunny 52 11.1 49 9.4 89 89 undefined N/A 29.90 1013 10 16 N/A
6:53 am 06:53 Sunny 57 13.9 52 11.1 83 83 SE 3 6 29.88 1012 10 16 N/A
7:53 am 07:53 Sunny 63 17.2 54 12.2 73 73 SW 6 9 29.88 1012 10 16 N/A
8:53 am 08:53 Sunny 70 21.1 55 12.8 59 59 SW 7 11 29.86 1011 10 16 N/A
9:53 am 09:53 Sunny 77 25 53 11.7 43 43 SW 15 24 29.85 1011 10 16 N/A
10:53 am 10:53 Sunny 80 26.7 53 11.7 39 39 SW 13 20 29.83 1010 10 16 N/A
11:53 am 11:53 Sunny 83 28.3 52 11.1 34 34 SSW 15 24 29.81 1010 10 16 N/A
12:53 pm 12:53 Sunny 85 29.4 51 10.6 31 31 S 14 22 29.79 1009 10 16 N/A
1:53 pm 13:53 Sunny 88 31.1 51 10.6 28 28 SW 13 20 29.77 1008 10 16 N/A
2:53 pm 14:53 Sunny 89 31.7 50 10 26 26 WSW 13 20 29.75 1007 10 16 N/A
3:53 pm 15:53 Sunny 90 32.2 43 6.1 19 19 WSW 14 22 29.73 1007 10 16 N/A
4:53 pm 16:53 Sunny 88 31.1 44 6.7 22 22 WSW 15 24 29.72 1007 10 16 N/A
5:53 pm 17:53 Sunny 89 31.7 41 5 19 19 WSW 15 24 29.70 1006 10 16 N/A
6:53 pm 18:53 Sunny 89 31.7 44 6.7 21 21 WSW 8 13 29.68 1005 10 16 N/A
7:53 pm 19:53 Sunny 86 30 45 7.2 24 24 WSW 8 13 29.67 1005 10 16 N/A
8:53 pm 20:53 Sunny 75 23.9 48 8.9 39 39 SW 8 13 29.66 1004 10 16 N/A
9:53 pm 21:53 Clear 70 21.1 51 10.6 51 51 SSW 8 13 29.65 1004 10 16 N/A
10:53 pm 22:53 Clear 70 21.1 50 10 49 49 WSW 5 7 29.65 1004 10 16 N/A
11:53 pm 23:53 Clear 66 18.9 51 10.6 59 59 S 8 13 29.64 1004 10 16 N/A

Powered by AerisWeather